Location: Dehesa de la Cepeda
(40.6574°N, 4.3013°W)
Time: 10:37:07
(UTC+00:00)

Transit 2A Rocket - Pass Details

Date: 04 August 2021
Orbit: 586 x 917 km, 66.7° (Epoch: 24 September)

Event Time Altitude Azimuth Distance (km) Brightness Sun altitude
Rises 23:46:33 0° 315° (NW) 3,362 9.1 -31.7°
Reaches altitude 10° 23:49:31 10° 299° (WNW) 2,477 8.0 -31.8°
Enters shadow 23:52:17 19° 272° (W) 1,945 7.1 -31.9°
Maximum altitude 23:53:40 21° 253° (WSW) 1,879 - -32.0°
Drops below altitude 10° 23:57:58 10° 207° (SSW) 2,572 - -32.1°
Sets 00:01:08 0° 192° (SSW) 3,529 - -32.2°
